sat.trackr.live / text

‹ back to catalog

SHIJIAN-15 (SJ-15)

NORAD 39210 · 2013-037C

PAYLOAD ACTIVE UNKNOWN

§ Identity

Operator
Country
PRC
Launch date
2013-07-19
Launch site
TAISC
Launch vehicle
Mass (kg)
RCS (m²)
3.33

External: N2YO · Heavens-Above · Gunter

§ Orbital elements

Epoch: 2026-05-25T05:55:15.258432Z

Period
97.86 min
Inclination
98.1039°
Eccentricity
0.0005304
Mean motion
14.71468045 rev/d
Perigee alt
652.7 km
Apogee alt
660.1 km
Semi-major
7,034.5 km
B*
9.2759e-5
RAAN
148.3429°
Arg perigee
209.5545°
Mean anomaly
150.5363°
Rev number
69,095

§ Raw data

SHIJIAN-15 (SJ-15)1 39210U 13037C   26145.24670438  .00000525  00000+0  92759-4 0  99982 39210  98.1039 148.3429 0005304 209.5545 150.5363 14.71468045690952

JSON: /api/v1/satellites/39210 · /tle

For live sub-satellite position, see the globe view (requires WebGL).

§ Visibility from observer

Set your observer location to see the next 7 days of passes ≥ 10°. The values pass through the URL so the page stays shareable.

No JS? Fill the form by hand. The geolocation button needs JavaScript.